| time (UTC) | temp F | wind direction | speed MPH | gust MPH | rain 1hr in | rain 24hr in | rain mn in | humidity % | barometer mb |
| 20260905080216 | 70 | 30 | 0.0 | 0.0 | 0.00 | 0.04 | 0.00 | 97 | 968.1 |
| 20260905075710 | 70 | 30 | 0.0 | 0.0 | 0.00 | 0.04 | 0.00 | 97 | 968.1 |
| 20260905075208 | 70 | 30 | 0.0 | 0.0 | 0.00 | 0.04 | 0.00 | 97 | 968.0 |
| 20260905075149 | 70 | 30 | 0.0 | 0.0 | 0.00 | 0.04 | 0.00 | 98 | 968.1 |
| 20260905074207 | 70 | 30 | 0.0 | 0.0 | 0.00 | 0.04 | 0.00 | 98 | 968.1 |
| 20260905073917 | 70 | 30 | 0.0 | 0.0 | 0.00 | 0.04 | 0.00 | 97 | 968.2 |
| 20260905073759 | 70 | 30 | 0.0 | 0.0 | 0.00 | 0.04 | 0.00 | 97 | 968.2 |
| 20260905072704 | 70 | 30 | 0.0 | 0.0 | 0.00 | 0.04 | 0.00 | 97 | 968.3 |
| 20260905072203 | 70 | 30 | 0.0 | 0.0 | 0.00 | 0.04 | 0.00 | 97 | 968.3 |
| 20260905071705 | 70 | 30 | 0.0 | 0.0 | 0.00 | 0.04 | 0.00 | 97 | 968.4 |
| 20260905071204 | 70 | 30 | 0.0 | 0.0 | 0.00 | 0.04 | 0.00 | 97 | 968.4 |
| 20260905070704 | 70 | 30 | 0.0 | 0.0 | 0.00 | 0.04 | 0.00 | 97 | 968.5 |
| 20260905070203 | 70 | 30 | 0.0 | 0.0 | 0.00 | 0.04 | 0.00 | 97 | 968.5 |
| 20260905065703 | 70 | 30 | 0.0 | 0.0 | 0.00 | 0.04 | 0.00 | 97 | 968.5 |
| 20260905065206 | 70 | 30 | 0.0 | 2.0 | 0.00 | 0.04 | 0.00 | 98 | 968.5 |
| 20260905064704 | 70 | 30 | 0.0 | 2.0 | 0.00 | 0.04 | 0.00 | 98 | 968.6 |
| 20260905064205 | 70 | 34 | 0.0 | 0.0 | 0.00 | 0.04 | 0.00 | 98 | 968.6 |
| 20260905063705 | 70 | 34 | 0.0 | 0.0 | 0.00 | 0.04 | 0.00 | 98 | 968.7 |
| 20260905063159 | 70 | 34 | 0.0 | 0.0 | 0.00 | 0.04 | 0.00 | 98 | 968.7 |
| 20260905062657 | 70 | 34 | 0.0 | 0.0 | 0.00 | 0.04 | 0.00 | 98 | 968.7 |
| 20260905062153 | 70 | 34 | 0.0 | 0.0 | 0.00 | 0.04 | 0.00 | 98 | 968.7 |
| 20260905061655 | 70 | 34 | 0.0 | 0.0 | 0.00 | 0.04 | 0.00 | 98 | 968.8 |
| 20260905061154 | 70 | 34 | 0.0 | 0.0 | 0.00 | 0.04 | 0.00 | 98 | 968.9 |
| 20260905060653 | 70 | 34 | 0.0 | 0.0 | 0.00 | 0.04 | 0.00 | 98 | 969.0 |
| 20260905060154 | 71 | 34 | 0.0 | 0.0 | 0.00 | 0.04 | 0.00 | 98 | 968.9 |
| 20260905055650 | 71 | 34 | 0.0 | 0.0 | 0.00 | 0.04 | 0.00 | 98 | 968.9 |
| 20260905055154 | 71 | 34 | 0.0 | 0.0 | 0.00 | 0.04 | 0.00 | 97 | 969.0 |
| 20260905054651 | 71 | 34 | 0.0 | 0.0 | 0.00 | 0.04 | 0.00 | 97 | 969.0 |
| 20260905054411 | 71 | 34 | 0.0 | 0.0 | 0.00 | 0.04 | 0.00 | 97 | 969.0 |
| 20260905053649 | 71 | 34 | 0.0 | 0.0 | 0.00 | 0.04 | 0.00 | 97 | 969.1 |
| 20260905053149 | 71 | 34 | 0.0 | 1.0 | 0.00 | 0.04 | 0.00 | 97 | 969.1 |
| 20260905052646 | 71 | 19 | 0.0 | 1.0 | 0.00 | 0.04 | 0.00 | 97 | 969.1 |
| 20260905052409 | 71 | 45 | 0.0 | 1.0 | 0.00 | 0.04 | 0.00 | 98 | 969.2 |
| 20260905051906 | 71 | 45 | 0.0 | 1.0 | 0.00 | 0.04 | 0.00 | 98 | 969.2 |
| 20260905051143 | 71 | 45 | 0.0 | 0.0 | 0.00 | 0.04 | 0.00 | 98 | 969.2 |
| 20260905050644 | 71 | 45 | 0.0 | 0.0 | 0.00 | 0.04 | 0.00 | 98 | 969.2 |
| 20260905050143 | 71 | 45 | 0.0 | 0.0 | 0.00 | 0.04 | 0.00 | 98 | 969.2 |
| 20260905045645 | 71 | 45 | 0.0 | 0.0 | 0.00 | 0.04 | 0.00 | 99 | 969.4 |
| 20260905045403 | 71 | 45 | 0.0 | 0.0 | 0.00 | 0.04 | 0.00 | 99 | 969.4 |
| 20260905044645 | 71 | 45 | 0.0 | 0.0 | 0.00 | 0.04 | 0.00 | 99 | 969.4 |
| 20260905044143 | 71 | 45 | 0.0 | 0.0 | 0.01 | 0.04 | 0.00 | 98 | 969.4 |
| 20260905043645 | 71 | 45 | 0.0 | 0.0 | 0.01 | 0.04 | 0.00 | 98 | 969.4 |
| 20260905043140 | 71 | 45 | 0.0 | 0.0 | 0.02 | 0.04 | 0.00 | 98 | 969.5 |
| 20260905042639 | 71 | 45 | 0.0 | 0.0 | 0.03 | 0.04 | 0.00 | 98 | 969.4 |
| 20260905042400 | 71 | 45 | 0.0 | 0.0 | 0.03 | 0.04 | 0.00 | 98 | 969.4 |
| 20260905041640 | 71 | 45 | 0.0 | 0.0 | 0.03 | 0.04 | 0.00 | 98 | 969.4 |
| 20260905041139 | 71 | 45 | 0.0 | 0.0 | 0.03 | 0.04 | 0.00 | 98 | 969.4 |
| 20260905040640 | 71 | 45 | 0.0 | 0.0 | 0.03 | 0.04 | 0.00 | 97 | 969.4 |
| 20260905040140 | 71 | 45 | 0.0 | 0.0 | 0.04 | 0.04 | 0.00 | 97 | 969.4 |
| 20260905035639 | 71 | 45 | 0.0 | 0.0 | 0.04 | 0.04 | 0.04 | 97 | 969.3 |
| 20260905035136 | 71 | 45 | 0.0 | 0.0 | 0.04 | 0.04 | 0.04 | 96 | 969.3 |
| 20260905034637 | 71 | 45 | 0.0 | 2.0 | 0.04 | 0.04 | 0.04 | 96 | 969.3 |
| 20260905034132 | 72 | 45 | 0.0 | 4.0 | 0.03 | 0.03 | 0.03 | 96 | 969.3 |
| 20260905034116 | 72 | 316 | 1.0 | 4.0 | 0.03 | 0.03 | 0.03 | 95 | 969.2 |
| 20260905033130 | 72 | 34 | 1.0 | 5.0 | 0.02 | 0.02 | 0.03 | 95 | 969.2 |
| 20260905032631 | 72 | 24 | 1.0 | 5.0 | 0.01 | 0.01 | 0.01 | 95 | 969.2 |
| 20260905032350 | 72 | 23 | 0.0 | 3.0 | 0.01 | 0.01 | 0.01 | 95 | 969.2 |
| 20260905031629 | 73 | 23 | 0.0 | 4.0 | 0.01 | 0.02 | 0.01 | 95 | 969.2 |
| 20260905031129 | 73 | 346 | 0.0 | 4.0 | 0.01 | 0.02 | 0.01 | 94 | 969.1 |
| 20260905030628 | 73 | 32 | 0.0 | 3.0 | 0.01 | 0.02 | 0.01 | 94 | 969.1 |
| 20260905030128 | 73 | 26 | 0.0 | 3.0 | 0.00 | 0.02 | 0.00 | 93 | 969.0 |
| 20260905025627 | 74 | 38 | 0.0 | 2.0 | 0.00 | 0.02 | 0.00 | 92 | 969.0 |
| 20260905025344 | 74 | 53 | 0.0 | 3.0 | 0.00 | 0.02 | 0.00 | 92 | 969.0 |
| 20260905024627 | 74 | 17 | 0.0 | 3.0 | 0.00 | 0.03 | 0.00 | 91 | 969.0 |
| 20260905024125 | 74 | 48 | 0.0 | 1.0 | 0.00 | 0.03 | 0.00 | 91 | 968.9 |
| 20260905023627 | 74 | 65 | 0.0 | 1.0 | 0.00 | 0.03 | 0.00 | 91 | 968.9 |
| 20260905023126 | 74 | 62 | 0.0 | 3.0 | 0.00 | 0.03 | 0.00 | 91 | 968.9 |
| 20260905022626 | 74 | 97 | 0.0 | 3.0 | 0.00 | 0.03 | 0.00 | 92 | 968.9 |
| 20260905022126 | 74 | 15 | 0.0 | 4.0 | 0.00 | 0.03 | 0.00 | 92 | 968.9 |
| 20260905021625 | 73 | 267 | 0.0 | 4.0 | 0.00 | 0.03 | 0.00 | 93 | 969.0 |
| 20260905021126 | 73 | 22 | 0.0 | 1.0 | 0.00 | 0.03 | 0.00 | 94 | 969.0 |
| 20260905020623 | 73 | 293 | 0.0 | 0.0 | 0.00 | 0.03 | 0.00 | 94 | 969.0 |
| 20260905020123 | 72 | 292 | 0.0 | 0.0 | 0.00 | 0.03 | 0.00 | 94 | 968.9 |
| 20260905015624 | 72 | 292 | 0.0 | 0.0 | 0.00 | 0.03 | 0.00 | 95 | 968.8 |
| 20260905015125 | 72 | 293 | 0.0 | 0.0 | 0.00 | 0.03 | 0.00 | 95 | 968.9 |
| 20260905014621 | 72 | 293 | 0.0 | 0.0 | 0.00 | 0.03 | 0.00 | 95 | 969.1 |
| 20260905014121 | 72 | 293 | 0.0 | 0.0 | 0.00 | 0.03 | 0.00 | 95 | 969.1 |
| 20260905013838 | 72 | 293 | 0.0 | 0.0 | 0.00 | 0.03 | 0.00 | 95 | 969.0 |
| 20260905013119 | 72 | 293 | 0.0 | 0.0 | 0.00 | 0.03 | 0.00 | 94 | 969.0 |
| 20260905012621 | 72 | 293 | 0.0 | 0.0 | 0.00 | 0.03 | 0.00 | 94 | 969.0 |
| 20260905012124 | 72 | 293 | 0.0 | 0.0 | 0.00 | 0.03 | 0.00 | 93 | 968.9 |
| 20260905011624 | 72 | 293 | 0.0 | 0.0 | 0.00 | 0.03 | 0.00 | 92 | 969.0 |
| 20260905011343 | 73 | 293 | 0.0 | 0.0 | 0.00 | 0.03 | 0.00 | 92 | 969.0 |
| 20260905010623 | 73 | 293 | 0.0 | 0.0 | 0.00 | 0.03 | 0.00 | 91 | 969.0 |
| 20260905010121 | 73 | 293 | 0.0 | 0.0 | 0.00 | 0.03 | 0.00 | 92 | 969.0 |
| 20260905005621 | 73 | 293 | 0.0 | 0.0 | 0.00 | 0.03 | 0.00 | 92 | 969.1 |
| 20260905005119 | 72 | 293 | 0.0 | 0.0 | 0.00 | 0.03 | 0.00 | 92 | 969.0 |
| 20260905004619 | 72 | 293 | 0.0 | 0.0 | 0.00 | 0.03 | 0.00 | 92 | 969.0 |
| 20260905004337 | 72 | 293 | 0.0 | 0.0 | 0.00 | 0.03 | 0.00 | 92 | 968.9 |
| 20260905003844 | 73 | 293 | 0.0 | 0.0 | 0.00 | 0.03 | 0.00 | 91 | 968.9 |
| 20260905003119 | 73 | 293 | 0.0 | 0.0 | 0.00 | 0.03 | 0.00 | 91 | 968.9 |
| 20260905002620 | 73 | 293 | 0.0 | 0.0 | 0.00 | 0.03 | 0.00 | 90 | 968.7 |
| 20260905002119 | 74 | 293 | 0.0 | 0.0 | 0.00 | 0.03 | 0.00 | 89 | 968.6 |
| 20260905002104 | 74 | 293 | 0.0 | 0.0 | 0.00 | 0.03 | 0.00 | 89 | 968.6 |
| 20260905001119 | 74 | 293 | 0.0 | 0.0 | 0.00 | 0.03 | 0.00 | 88 | 968.5 |
| 20260905000619 | 75 | 293 | 0.0 | 0.0 | 0.00 | 0.03 | 0.00 | 88 | 968.5 |
| 20260905000117 | 75 | 293 | 0.0 | 0.0 | 0.00 | 0.03 | 0.00 | 87 | 968.5 |
| 20260904235616 | 76 | 293 | 0.0 | 0.0 | 0.00 | 0.03 | 0.00 | 87 | 968.5 |
| 20260904235115 | 76 | 293 | 0.0 | 0.0 | 0.00 | 0.03 | 0.00 | 86 | 968.6 |
| 20260904234614 | 76 | 293 | 0.0 | 0.0 | 0.00 | 0.03 | 0.00 | 86 | 968.6 |
| 20260904234113 | 77 | 293 | 0.0 | 0.0 | 0.00 | 0.04 | 0.00 | 85 | 968.6 |
| 20260904233616 | 77 | 293 | 0.0 | 0.0 | 0.00 | 0.04 | 0.00 | 84 | 968.6 |
| 20260904233113 | 77 | 293 | 0.0 | 0.0 | 0.00 | 0.04 | 0.00 | 83 | 968.6 |
| 20260904232837 | 78 | 293 | 0.0 | 0.0 | 0.00 | 0.05 | 0.00 | 83 | 968.6 |
| 20260904232327 | 78 | 293 | 0.0 | 0.0 | 0.00 | 0.05 | 0.00 | 82 | 968.6 |
| 20260904231606 | 78 | 293 | 0.0 | 0.0 | 0.00 | 0.05 | 0.00 | 82 | 968.6 |
| 20260904231100 | 79 | 292 | 0.0 | 0.0 | 0.00 | 0.05 | 0.00 | 81 | 968.6 |
| 20260904230554 | 79 | 268 | 0.0 | 0.0 | 0.00 | 0.05 | 0.00 | 81 | 968.5 |
| 20260904230048 | 80 | 268 | 0.0 | 0.0 | 0.00 | 0.05 | 0.00 | 80 | 968.4 |
| 20260904225542 | 81 | 268 | 0.0 | 0.0 | 0.00 | 0.05 | 0.00 | 78 | 968.4 |
| 20260904225036 | 81 | 268 | 0.0 | 0.0 | 0.00 | 0.05 | 0.00 | 78 | 968.4 |
| 20260904224529 | 82 | 267 | 0.0 | 0.0 | 0.00 | 0.05 | 0.00 | 76 | 968.4 |
| 20260904224246 | 82 | 267 | 0.0 | 0.0 | 0.00 | 0.05 | 0.00 | 76 | 968.4 |
| 20260904223518 | 82 | 267 | 0.0 | 0.0 | 0.00 | 0.05 | 0.00 | 76 | 968.5 |
| 20260904223013 | 81 | 267 | 0.0 | 0.0 | 0.00 | 0.05 | 0.00 | 76 | 968.6 |
| 20260904222506 | 81 | 267 | 0.0 | 0.0 | 0.00 | 0.05 | 0.00 | 76 | 968.6 |
| 20260904222000 | 82 | 267 | 0.0 | 0.0 | 0.00 | 0.05 | 0.00 | 73 | 968.5 |
| 20260904221454 | 82 | 267 | 0.0 | 0.0 | 0.00 | 0.05 | 0.00 | 74 | 968.5 |
| 20260904221207 | 82 | 350 | 0.0 | 0.0 | 0.00 | 0.05 | 0.00 | 73 | 968.5 |
| 20260904220442 | 82 | 13 | 0.0 | 0.0 | 0.00 | 0.05 | 0.00 | 73 | 968.5 |
| 20260904215936 | 82 | 277 | 0.0 | 0.0 | 0.00 | 0.05 | 0.00 | 73 | 968.5 |
| 20260904215430 | 82 | 261 | 0.0 | 0.0 | 0.00 | 0.05 | 0.00 | 73 | 968.2 |
| 20260904214924 | 82 | 271 | 0.0 | 0.0 | 0.00 | 0.05 | 0.00 | 71 | 968.2 |
| 20260904214418 | 82 | 269 | 0.0 | 0.0 | 0.00 | 0.05 | 0.00 | 75 | 968.4 |
| 20260904213912 | 81 | 24 | 1.0 | 2.0 | 0.00 | 0.05 | 0.00 | 73 | 968.3 |
| 20260904213406 | 81 | 19 | 1.0 | 6.0 | 0.00 | 0.05 | 0.00 | 73 | 968.5 |
| 20260904212900 | 82 | 33 | 1.0 | 6.0 | 0.00 | 0.05 | 0.00 | 71 | 968.6 |
| 20260904212354 | 82 | 298 | 1.0 | 4.0 | 0.00 | 0.05 | 0.00 | 72 | 968.6 |
| 20260904211848 | 81 | 302 | 2.0 | 5.0 | 0.00 | 0.05 | 0.00 | 73 | 968.6 |
| 20260904211342 | 81 | 36 | 1.0 | 5.0 | 0.00 | 0.05 | 0.00 | 73 | 968.4 |
| 20260904211104 | 80 | 33 | 1.0 | 5.0 | 0.00 | 0.05 | 0.00 | 75 | 968.6 |
| 20260904210550 | 80 | 10 | 1.0 | 5.0 | 0.00 | 0.05 | 0.00 | 75 | 968.6 |
| 20260904205823 | 80 | 44 | 1.0 | 5.0 | 0.00 | 0.05 | 0.00 | 74 | 968.7 |
| 20260904205543 | 80 | 24 | 1.0 | 7.0 | 0.00 | 0.05 | 0.00 | 74 | 968.7 |
| 20260904204811 | 81 | 15 | 2.0 | 7.0 | 0.00 | 0.05 | 0.00 | 75 | 968.9 |
| 20260904204306 | 80 | 289 | 3.0 | 7.0 | 0.00 | 0.05 | 0.00 | 74 | 969.0 |
| 20260904203800 | 81 | 25 | 3.0 | 10.0 | 0.00 | 0.05 | 0.00 | 72 | 968.9 |
| 20260904203254 | 81 | 22 | 2.0 | 10.0 | 0.00 | 0.05 | 0.00 | 73 | 968.9 |
| 20260904203006 | 81 | 22 | 3.0 | 11.0 | 0.00 | 0.05 | 0.00 | 73 | 968.9 |
| 20260904202243 | 81 | 315 | 3.0 | 11.0 | 0.00 | 0.05 | 0.00 | 73 | 969.0 |
| 20260904201735 | 82 | 320 | 2.0 | 8.0 | 0.00 | 0.05 | 0.00 | 73 | 969.0 |
| 20260904201230 | 82 | 46 | 2.0 | 5.0 | 0.00 | 0.05 | 0.00 | 74 | 969.0 |
| 20260904200725 | 81 | 12 | 1.0 | 5.0 | 0.00 | 0.05 | 0.00 | 73 | 968.9 |
| 20260904200218 | 81 | 28 | 1.0 | 5.0 | 0.00 | 0.05 | 0.00 | 73 | 968.9 |
| 20260904195934 | 82 | 26 | 2.0 | 7.0 | 0.00 | 0.05 | 0.00 | 73 | 969.1 |
| 20260904195206 | 82 | 19 | 2.0 | 7.0 | 0.00 | 0.05 | 0.00 | 72 | 969.2 |
| 20260904194700 | 82 | 49 | 2.0 | 9.0 | 0.00 | 0.05 | 0.00 | 72 | 969.2 |
| 20260904194154 | 82 | 344 | 2.0 | 12.0 | 0.00 | 0.05 | 0.00 | 71 | 969.1 |
| 20260904193647 | 82 | 311 | 2.0 | 12.0 | 0.00 | 0.05 | 0.00 | 71 | 969.1 |
| 20260904193141 | 83 | 47 | 2.0 | 8.0 | 0.00 | 0.05 | 0.00 | 72 | 969.2 |
| 20260904192636 | 83 | 340 | 3.0 | 10.0 | 0.00 | 0.05 | 0.00 | 72 | 969.2 |
| 20260904192130 | 83 | 286 | 3.0 | 13.0 | 0.00 | 0.05 | 0.00 | 70 | 969.2 |
| 20260904191624 | 83 | 321 | 2.0 | 13.0 | 0.00 | 0.05 | 0.00 | 70 | 969.3 |
| 20260904191118 | 83 | 26 | 2.0 | 9.0 | 0.00 | 0.05 | 0.00 | 72 | 969.3 |
| 20260904190612 | 83 | 9 | 3.0 | 11.0 | 0.00 | 0.05 | 0.00 | 71 | 969.4 |
| 20260904190106 | 83 | 344 | 1.0 | 11.0 | 0.00 | 0.05 | 0.00 | 71 | 969.4 |
| 20260904185600 | 83 | 51 | 1.0 | 8.0 | 0.00 | 0.05 | 0.00 | 74 | 969.5 |
| 20260904185053 | 81 | 307 | 1.0 | 5.0 | 0.00 | 0.05 | 0.00 | 76 | 969.6 |
| 20260904184548 | 80 | 17 | 1.0 | 6.0 | 0.00 | 0.05 | 0.00 | 78 | 969.7 |
| 20260904184042 | 80 | 293 | 1.0 | 6.0 | 0.00 | 0.05 | 0.00 | 77 | 969.7 |
| 20260904183536 | 80 | 300 | 1.0 | 7.0 | 0.00 | 0.05 | 0.00 | 77 | 969.8 |
| 20260904183030 | 80 | 17 | 1.0 | 7.0 | 0.00 | 0.05 | 0.00 | 76 | 969.9 |
| 20260904182523 | 80 | 259 | 1.0 | 8.0 | 0.00 | 0.05 | 0.00 | 76 | 969.9 |
| 20260904182018 | 80 | 305 | 1.0 | 8.0 | 0.00 | 0.05 | 0.00 | 74 | 970.0 |
| 20260904181512 | 80 | 30 | 2.0 | 7.0 | 0.00 | 0.05 | 0.00 | 75 | 970.2 |
| 20260904181005 | 81 | 58 | 2.0 | 7.0 | 0.00 | 0.05 | 0.00 | 74 | 970.3 |
| 20260904180500 | 81 | 44 | 1.0 | 4.0 | 0.00 | 0.05 | 0.00 | 74 | 970.4 |
| 20260904175954 | 81 | 292 | 2.0 | 8.0 | 0.00 | 0.05 | 0.00 | 74 | 970.5 |
| 20260904175448 | 81 | 196 | 2.0 | 8.0 | 0.00 | 0.05 | 0.00 | 74 | 970.6 |
| 20260904174942 | 81 | 32 | 2.0 | 7.0 | 0.00 | 0.05 | 0.00 | 73 | 970.6 |
| 20260904174653 | 81 | 289 | 2.0 | 4.0 | 0.00 | 0.05 | 0.00 | 74 | 970.6 |
| 20260904173930 | 81 | 297 | 1.0 | 7.0 | 0.00 | 0.05 | 0.00 | 74 | 970.7 |
| 20260904173427 | 81 | 46 | 2.0 | 8.0 | 0.00 | 0.05 | 0.00 | 76 | 970.8 |
| 20260904172927 | 81 | 307 | 2.0 | 8.0 | 0.00 | 0.05 | 0.00 | 74 | 970.8 |
| 20260904172428 | 81 | 28 | 2.0 | 7.0 | 0.00 | 0.05 | 0.00 | 74 | 970.8 |
| 20260904171928 | 81 | 355 | 2.0 | 7.0 | 0.00 | 0.05 | 0.00 | 74 | 970.9 |
| 20260904171428 | 81 | 24 | 1.0 | 4.0 | 0.00 | 0.05 | 0.00 | 72 | 970.7 |
| 20260904170927 | 82 | 196 | 1.0 | 5.0 | 0.00 | 0.05 | 0.00 | 71 | 970.8 |
| 20260904170426 | 82 | 355 | 1.0 | 5.0 | 0.00 | 0.05 | 0.00 | 74 | 970.8 |
| 20260904170402 | 81 | 5 | 2.0 | 7.0 | 0.00 | 0.05 | 0.00 | 72 | 970.8 |
| 20260904170021 | 82 | 46 | 2.0 | 7.0 | 0.00 | 0.05 | 0.00 | 73 | 970.8 |
| 20260904165158 | 82 | 355 | 2.0 | 9.0 | 0.00 | 0.05 | 0.00 | 74 | 970.8 |
| 20260904164422 | 81 | 296 | 2.0 | 9.0 | 0.00 | 0.05 | 0.00 | 73 | 970.8 |
| 20260904163921 | 81 | 292 | 2.0 | 7.0 | 0.00 | 0.05 | 0.00 | 75 | 970.8 |
| 20260904163644 | 81 | 333 | 1.0 | 6.0 | 0.00 | 0.05 | 0.00 | 74 | 970.8 |
| 20260904162921 | 81 | 311 | 1.0 | 6.0 | 0.00 | 0.05 | 0.00 | 74 | 970.8 |
| 20260904162419 | 81 | 311 | 1.0 | 6.0 | 0.00 | 0.05 | 0.00 | 75 | 970.8 |
| 20260904162139 | 80 | 61 | 1.0 | 6.0 | 0.00 | 0.05 | 0.00 | 78 | 970.7 |
| 20260904161632 | 80 | 11 | 1.0 | 6.0 | 0.00 | 0.05 | 0.00 | 76 | 970.9 |
| 20260904160912 | 80 | 13 | 1.0 | 4.0 | 0.00 | 0.05 | 0.00 | 78 | 970.9 |
| 20260904160408 | 79 | 301 | 1.0 | 4.0 | 0.00 | 0.05 | 0.00 | 79 | 970.9 |
| 20260904155910 | 79 | 80 | 1.0 | 5.0 | 0.00 | 0.05 | 0.00 | 79 | 970.8 |
| 20260904155622 | 79 | 291 | 1.0 | 2.0 | 0.00 | 0.05 | 0.00 | 79 | 970.8 |
| 20260904155506 | 79 | 289 | 1.0 | 5.0 | 0.00 | 0.05 | 0.00 | 78 | 970.8 |
| 20260904154410 | 79 | 300 | 1.0 | 7.0 | 0.00 | 0.05 | 0.00 | 80 | 970.8 |
| 20260904153910 | 78 | 22 | 1.0 | 7.0 | 0.00 | 0.05 | 0.00 | 79 | 970.8 |
| 20260904153408 | 78 | 18 | 1.0 | 4.0 | 0.00 | 0.05 | 0.00 | 80 | 971.1 |
| 20260904152907 | 78 | 22 | 1.0 | 6.0 | 0.00 | 0.05 | 0.00 | 81 | 971.1 |
| 20260904152408 | 77 | 38 | 1.0 | 6.0 | 0.00 | 0.05 | 0.00 | 82 | 971.0 |
| 20260904151904 | 78 | 19 | 1.0 | 5.0 | 0.00 | 0.05 | 0.00 | 80 | 971.1 |
| 20260904151628 | 78 | 340 | 1.0 | 5.0 | 0.00 | 0.05 | 0.00 | 79 | 971.0 |
| 20260904150903 | 78 | 288 | 1.0 | 7.0 | 0.00 | 0.05 | 0.00 | 80 | 971.0 |
| 20260904150403 | 77 | 329 | 2.0 | 7.0 | 0.00 | 0.05 | 0.00 | 80 | 970.9 |
| 20260904145902 | 77 | 19 | 1.0 | 7.0 | 0.00 | 0.05 | 0.00 | 80 | 970.9 |
| 20260904145403 | 76 | 312 | 1.0 | 5.0 | 0.00 | 0.05 | 0.00 | 82 | 970.9 |
| 20260904144902 | 76 | 13 | 1.0 | 4.0 | 0.00 | 0.05 | 0.00 | 82 | 970.8 |
| 20260904144404 | 76 | 302 | 1.0 | 4.0 | 0.00 | 0.05 | 0.00 | 82 | 970.9 |
| 20260904144119 | 76 | 304 | 1.0 | 3.0 | 0.00 | 0.05 | 0.00 | 83 | 970.8 |
| 20260904143631 | 76 | 44 | 1.0 | 3.0 | 0.00 | 0.05 | 0.00 | 82 | 971.0 |
| 20260904142902 | 76 | 33 | 1.0 | 5.0 | 0.00 | 0.05 | 0.00 | 82 | 970.8 |
| 20260904142628 | 76 | 292 | 1.0 | 5.0 | 0.00 | 0.05 | 0.00 | 82 | 970.9 |
| 20260904141902 | 76 | 55 | 0.0 | 4.0 | 0.00 | 0.05 | 0.00 | 83 | 971.0 |
| 20260904141405 | 75 | 240 | 0.0 | 4.0 | 0.00 | 0.05 | 0.00 | 85 | 971.1 |
| 20260904140906 | 75 | 61 | 0.0 | 4.0 | 0.00 | 0.05 | 0.00 | 85 | 971.1 |
| 20260904140405 | 75 | 292 | 0.0 | 4.0 | 0.00 | 0.05 | 0.00 | 86 | 971.1 |
| 20260904135906 | 75 | 15 | 0.0 | 2.0 | 0.00 | 0.05 | 0.00 | 87 | 971.0 |
| 20260904135401 | 74 | 321 | 0.0 | 0.0 | 0.00 | 0.05 | 0.00 | 87 | 971.0 |
| 20260904134843 | 74 | 321 | 0.0 | 2.0 | 0.00 | 0.05 | 0.00 | 87 | 971.0 |
| 20260904134343 | 74 | 330 | 1.0 | 6.0 | 0.00 | 0.05 | 0.00 | 88 | 970.9 |
| 20260904134103 | 73 | 27 | 1.0 | 6.0 | 0.00 | 0.05 | 0.00 | 87 | 970.9 |
| 20260904133613 | 73 | 25 | 1.0 | 6.0 | 0.00 | 0.05 | 0.00 | 87 | 971.0 |
| 20260904132842 | 73 | 40 | 0.0 | 4.0 | 0.00 | 0.05 | 0.00 | 87 | 970.9 |
| 20260904132347 | 73 | 31 | 0.0 | 0.0 | 0.00 | 0.05 | 0.00 | 89 | 971.0 |
| 20260904131841 | 73 | 28 | 0.0 | 0.0 | 0.00 | 0.05 | 0.00 | 91 | 971.1 |
| 20260904131342 | 73 | 28 | 0.0 | 0.0 | 0.00 | 0.05 | 0.00 | 90 | 971.1 |
| 20260904130841 | 73 | 302 | 0.0 | 0.0 | 0.00 | 0.05 | 0.00 | 91 | 971.2 |
| 20260904130340 | 73 | 302 | 0.0 | 0.0 | 0.00 | 0.05 | 0.00 | 90 | 971.2 |
| 20260904130058 | 73 | 302 | 0.0 | 0.0 | 0.00 | 0.05 | 0.00 | 91 | 971.3 |
| 20260904125332 | 72 | 229 | 0.0 | 0.0 | 0.00 | 0.05 | 0.00 | 91 | 971.3 |
| 20260904124833 | 72 | 176 | 0.0 | 0.0 | 0.00 | 0.05 | 0.00 | 91 | 971.2 |
| 20260904124551 | 72 | 176 | 0.0 | 0.0 | 0.00 | 0.05 | 0.00 | 91 | 971.3 |
| 20260904123819 | 72 | 230 | 0.0 | 0.0 | 0.00 | 0.05 | 0.00 | 92 | 971.3 |
| 20260904123313 | 71 | 230 | 0.0 | 0.0 | 0.00 | 0.05 | 0.00 | 92 | 971.3 |
| 20260904122806 | 71 | 230 | 0.0 | 0.0 | 0.00 | 0.05 | 0.00 | 93 | 971.3 |
| 20260904122301 | 71 | 206 | 0.0 | 0.0 | 0.00 | 0.05 | 0.00 | 94 | 971.4 |
| 20260904122027 | 71 | 205 | 0.0 | 0.0 | 0.00 | 0.05 | 0.00 | 94 | 971.3 |
| 20260904121245 | 71 | 205 | 0.0 | 0.0 | 0.00 | 0.05 | 0.00 | 94 | 971.3 |
| 20260904120739 | 71 | 205 | 0.0 | 0.0 | 0.00 | 0.05 | 0.00 | 94 | 971.3 |
| 20260904120233 | 71 | 212 | 0.0 | 0.0 | 0.00 | 0.05 | 0.00 | 94 | 971.2 |
| 20260904115728 | 71 | 213 | 0.0 | 0.0 | 0.00 | 0.05 | 0.00 | 94 | 971.2 |
| 20260904115220 | 71 | 179 | 0.0 | 0.0 | 0.00 | 0.05 | 0.00 | 94 | 971.3 |
| 20260904114715 | 70 | 179 | 0.0 | 0.0 | 0.00 | 0.05 | 0.00 | 94 | 971.4 |
| 20260904114209 | 70 | 179 | 0.0 | 0.0 | 0.00 | 0.05 | 0.00 | 93 | 971.4 |
| 20260904113703 | 70 | 76 | 0.0 | 0.0 | 0.00 | 0.05 | 0.00 | 93 | 971.3 |
| 20260904113203 | 71 | 76 | 0.0 | 2.0 | 0.00 | 0.05 | 0.00 | 92 | 971.2 |
| 20260904112700 | 71 | 40 | 0.0 | 4.0 | 0.00 | 0.05 | 0.00 | 92 | 971.1 |
| 20260904112159 | 71 | 29 | 1.0 | 4.0 | 0.00 | 0.05 | 0.00 | 92 | 971.2 |
| 20260904111700 | 71 | 48 | 1.0 | 4.0 | 0.00 | 0.05 | 0.00 | 93 | 971.3 |
| 20260904111159 | 71 | 33 | 1.0 | 4.0 | 0.00 | 0.05 | 0.00 | 93 | 971.2 |
| 20260904110656 | 71 | 336 | 2.0 | 7.0 | 0.00 | 0.05 | 0.00 | 93 | 971.2 |
| 20260904110154 | 71 | 12 | 2.0 | 7.0 | 0.00 | 0.05 | 0.00 | 93 | 971.3 |
| 20260904105655 | 71 | 331 | 1.0 | 5.0 | 0.00 | 0.05 | 0.00 | 93 | 971.1 |
| 20260904105156 | 71 | 109 | 2.0 | 10.0 | 0.00 | 0.05 | 0.00 | 93 | 971.0 |
| 20260904105145 | 70 | 332 | 2.0 | 10.0 | 0.00 | 0.05 | 0.00 | 93 | 971.1 |
| 20260904104155 | 70 | 38 | 1.0 | 8.0 | 0.00 | 0.05 | 0.00 | 94 | 971.1 |
| 20260904103654 | 70 | 355 | 0.0 | 2.0 | 0.00 | 0.05 | 0.00 | 94 | 971.1 |
| 20260904103154 | 70 | 76 | 0.0 | 0.0 | 0.00 | 0.05 | 0.00 | 95 | 971.0 |
| 20260904102652 | 70 | 76 | 0.0 | 1.0 | 0.00 | 0.05 | 0.00 | 95 | 971.0 |
| 20260904102150 | 70 | 76 | 0.0 | 3.0 | 0.00 | 0.05 | 0.00 | 95 | 970.9 |
| 20260904101649 | 70 | 51 | 0.0 | 3.0 | 0.00 | 0.05 | 0.00 | 95 | 971.1 |
| 20260904101623 | 69 | 153 | 0.0 | 2.0 | 0.00 | 0.05 | 0.00 | 96 | 971.0 |
| 20260904100644 | 69 | 54 | 0.0 | 0.0 | 0.00 | 0.05 | 0.00 | 96 | 970.9 |
| 20260904100144 | 69 | 54 | 0.0 | 5.0 | 0.00 | 0.05 | 0.00 | 96 | 970.7 |
| 20260904095904 | 69 | 54 | 0.0 | 5.0 | 0.00 | 0.05 | 0.00 | 96 | 970.7 |
| 20260904095137 | 69 | 344 | 0.0 | 1.0 | 0.00 | 0.05 | 0.00 | 97 | 970.7 |
| 20260904094851 | 69 | 292 | 0.0 | 3.0 | 0.00 | 0.05 | 0.00 | 97 | 970.7 |
| 20260904094125 | 69 | 343 | 0.0 | 1.0 | 0.00 | 0.05 | 0.00 | 97 | 970.7 |
| 20260904093619 | 69 | 340 | 1.0 | 9.0 | 0.00 | 0.05 | 0.00 | 97 | 970.7 |
| 20260904093113 | 69 | 346 | 1.0 | 9.0 | 0.00 | 0.05 | 0.00 | 98 | 970.8 |
| 20260904092607 | 68 | 24 | 0.0 | 4.0 | 0.00 | 0.05 | 0.00 | 99 | 970.7 |
| 20260904092101 | 68 | 136 | 0.0 | 0.0 | 0.00 | 0.05 | 0.00 | 99 | 970.7 |
| 20260904091555 | 67 | 150 | 0.0 | 0.0 | 0.00 | 0.05 | 0.00 | 99 | 970.8 |
| 20260904091049 | 67 | 150 | 0.0 | 0.0 | 0.00 | 0.05 | 0.00 | 99 | 970.8 |
| 20260904090811 | 67 | 151 | 0.0 | 0.0 | 0.00 | 0.05 | 0.00 | 99 | 970.8 |
| 20260904090036 | 67 | 150 | 0.0 | 0.0 | 0.00 | 0.05 | 0.00 | 99 | 970.7 |
| 20260904085532 | 67 | 151 | 0.0 | 0.0 | 0.00 | 0.05 | 0.00 | 99 | 970.7 |
| 20260904085025 | 67 | 151 | 0.0 | 0.0 | 0.00 | 0.05 | 0.00 | 99 | 970.6 |
| 20260904084943 | 68 | 151 | 0.0 | 0.0 | 0.00 | 0.05 | 0.00 | 99 | 970.6 |
| 20260904084608 | 67 | 151 | 0.0 | 0.0 | 0.00 | 0.05 | 0.00 | 99 | 970.6 |
| 20260904083508 | 68 | 151 | 0.0 | 1.0 | 0.00 | 0.05 | 0.00 | 99 | 970.6 |
| 20260904083001 | 67 | 33 | 0.0 | 1.0 | 0.00 | 0.05 | 0.00 | 99 | 970.5 |
| 20260904082711 | 67 | 339 | 0.0 | 1.0 | 0.00 | 0.05 | 0.00 | 99 | 970.5 |
| 20260904082207 | 67 | 9 | 0.0 | 0.0 | 0.00 | 0.05 | 0.00 | 100 | 970.4 |
| 20260904081442 | 67 | 10 | 0.0 | 0.0 | 0.00 | 0.05 | 0.00 | 100 | 970.3 |
| 20260904080936 | 67 | 9 | 0.0 | 0.0 | 0.00 | 0.05 | 0.00 | 100 | 970.2 |